Volver al catálogo

STARLINK-37706

ActivoComunicacionesSSO
NORAD 69127·PAYLOAD·🇺🇸 United States

Lanzado May 20, 2026 desde Vandenberg Space Force Base

Loading…

Próximos Pases (próximas 24 horas)

TLE

ActualizadoSource: CelesTrak SupGP

Época: Sep 14, 2026, 21:24 UTC

1 69127C 26110D   26257.89215278  .00084014  00000+0  26087-2 0  2577
2 69127  97.2852  92.9727 0001629  91.7595 242.0604 15.33387049    12

Sigue STARLINK-37706 en tiempo real con AllMySat

Download on the App Store